Probability
0 0 0 0 0 0 0 0 0 0 0 0 0 0 0 0 0 0 0 0 0 0 0 0 0 0 0 0 0 0 0 0 0 0 0 0 0 0
0 0 0 0 0 0 0 0 0 0 0 0 0 0 0 0 0 0 0 0 0 0 0 0 0 0 0 0 0 0 0 0 0 0 0 0 0 0
0 0 0 0 0 0 0 0 0 0 0 0 0 0 0 0 0 0 0 0 0 0 0 0 0 0 0 0 0 0 0 0 0 0 0 0 0 0
0 0 0 0 0 0 0 0 0 0 0 0 0 0 0 0 0 0 0 0 0 0 0 0 0 0 0 0 0 0 0 0 0 0 0 0 0 0
0 0 0 0 0 0 0 0 0 0 0 0 0 0 0 0 0 0 0 0 0 0 0 0 0 0 0 0 0 0 0 0 0 0 0 0 0 0
0 0 0 0 0 0 0 0 0 0 0 0 0 0 0 0 0 0 0 0 0 0 0 0 0 0 0 0 0 0 0 0 0 0 0 0 0 0
0 0 0 0 0 0 0 0 0 0 0 0 0 0 0 0 0 0 0 0 0 0 0 0 0 0 0 0 0 0 0 0 0 0 0 0 0 0
0 0 0 0 0 0 0 0 0 0 0 0 0 0 0 0 0 0 0 0 0 0 0 0 0 0 0 0 0 0 0 0 0 0 0 0 0 0
0 0 0 0 0 0 0 0 0 0 0 0 0 0 0 0 0 0 0 0 0 0 0 0 0 0 0 0 0 0 0 0 0 0 0 0 0 0
0 0 0 0 0 0 0 0 0 0 0 0 0 0 0 0 0 0 0 0 0 0 0 0 0 0 0 0 0 0 0 0 0 0 0 0 0 0
0 0 0 0 0 0 0 0 0 0 0 0 0 0 0 0 0 0 0 0 0 0 0 0 0 0 0 0 0 0 0 0 0 0 0 0 0 0
0 0 0 0 0 0 0 0 0 0 0 0 0 0 0 0 0 0 0 0 0 0 0 0 0 0 0 0 0 0 0 0 0 0 0 0 0 0
0 0 0 0 0 0 0 0 0 0 0 0 0 0 0 0 0 0 0 0 0 0 0 0 0 0 0 0 0 0 0 0 0 0 0 0 0 0
0 0 0 0 0 0 0 0 0 0 0 0 0 0 0 0 0 0 0 0 0 0 0 0 0 0 0 0 0 0 0 0 0 0 0 0 0 0
0 0 0 0 0 0 0 0 0 0 0 0 0 0 0 0 0 0 0 0 0 0 0 0 0 0 0 0 0 0 0 0 0 0 0 0 0 0
0 0 0 0 0 0 0 0 0 0 0 0 0 0 0 0 0 0 0 0 0 0 0 0 0 0 0 0 0 0 0 0 0 0 0 0 0 0
0 0 0 0 0 0 0 0 0 0 0 0 0 0 0 0 0 0 0 0 0 0 0 0 0 0 0 0 0 0 0 0 0 0 0 0 0 0
0 0 0 0 0 0 0 0 0 0 0 0 0 0 0 0 0 0 0 0 0 0 0 0 0 0 0 0 0 0 0 0 0 0 0 0 0 0
0 0 0 0 0 0 0 0 0 0 0 0 0 0 0 0 0 0 0 0 0 0 0 0 0 0 0 0 0 0 0 0 0 0 0 0 0 0
0 0 0 0 0 0 0 0 0 0 0 0 0 0 0 0 0 0 0 0 0 0 0 0 0 0 0 0 0 0 0 0 0 0 0 0 0 0
0 0 0 0 0 0 0 0 0 0 0 0 0 0 0 0 0 0 0 0 0 0 0 0 0 0 0 0 0 0 0 0 0 0 0 0 0 0
0 0 0 0 0 0 0 0 0 0 0 0 0 0 0 0 0 0 0 0 0 0 0 0 0 0 0 0 0 0 0 0 0 0 0 0 0 0
0 0 0 0 0 0 0 0 0 0 0 0 0 0 0 0 0 0 0 0 0 0 0 0 0 0 0 0 0 0 0 0 0 0 0 0 0 0
Height
5641 5641 5642 5644 5645 5647 5649 5651 5653 5654 5656 5657 5658 5659 5660 5661 5663 5664 5665 5666 5666 5667 5668 5669 5670 5671 5672 5672 5673 5674 5674 5675 5675 5676 5676 5675 5676 5676
5629 5630 5631 5632 5633 5635 5637 5638 5639 5641 5643 5645 5645 5646 5647 5648 5650 5651 5652 5653 5653 5654 5655 5655 5656 5656 5657 5658 5659 5659 5660 5660 5661 5661 5661 5661 5661 5661
5617 5618 5619 5620 5621 5623 5624 5626 5627 5629 5630 5632 5633 5634 5634 5635 5636 5637 5638 5639 5640 5640 5641 5641 5641 5642 5643 5643 5644 5644 5645 5645 5646 5646 5646 5646 5646 5646
5605 5606 5607 5608 5609 5611 5612 5614 5615 5616 5618 5619 5620 5621 5621 5622 5623 5623 5624 5625 5625 5626 5626 5627 5627 5627 5628 5628 5629 5629 5630 5630 5630 5631 5631 5631 5631 5630
5592 5593 5594 5595 5597 5598 5600 5602 5603 5604 5605 5606 5607 5608 5608 5608 5609 5610 5610 5611 5611 5611 5612 5612 5612 5612 5612 5613 5613 5614 5614 5615 5615 5615 5615 5615 5614 5614
5579 5580 5581 5583 5584 5586 5587 5589 5590 5591 5592 5593 5594 5594 5595 5595 5595 5596 5596 5596 5597 5597 5597 5597 5597 5597 5597 5598 5599 5599 5599 5598 5598 5599 5598 5598 5598 5597
5567 5568 5569 5570 5572 5573 5575 5576 5577 5578 5579 5580 5580 5581 5582 5582 5582 5582 5582 5582 5582 5582 5582 5582 5582 5583 5582 5583 5583 5583 5583 5582 5582 5582 5582 5582 5581 5580
5555 5556 5557 5558 5559 5561 5562 5563 5564 5565 5566 5566 5567 5568 5568 5568 5568 5568 5568 5568 5568 5569 5567 5567 5567 5567 5568 5568 5567 5567 5567 5566 5566 5566 5566 5565 5564 5564
5542 5543 5544 5546 5547 5548 5549 5550 5551 5551 5553 5554 5554 5554 5555 5555 5555 5554 5553 5553 5553 5552 5552 5553 5553 5553 5553 5552 5552 5551 5550 5550 5550 5550 5549 5549 5548 5548
5529 5530 5532 5533 5534 5535 5536 5537 5538 5539 5539 5540 5541 5541 5541 5540 5540 5540 5539 5538 5538 5537 5536 5538 5538 5538 5538 5537 5536 5535 5535 5534 5534 5533 5533 5532 5532 5532
5516 5517 5519 5520 5521 5521 5522 5524 5525 5525 5525 5526 5526 5526 5526 5526 5525 5525 5524 5524 5524 5523 5522 5523 5523 5523 5523 5522 5521 5520 5519 5518 5518 5517 5517 5516 5516 5515
5504 5505 5506 5507 5507 5507 5508 5510 5511 5511 5511 5512 5512 5512 5512 5511 5511 5510 5509 5509 5508 5508 5508 5507 5507 5507 5508 5508 5506 5504 5503 5502 5501 5501 5501 5500 5499 5498
5490 5491 5492 5493 5493 5493 5494 5496 5496 5497 5497 5497 5498 5497 5497 5497 5496 5495 5494 5494 5493 5493 5493 5492 5492 5491 5491 5492 5491 5489 5488 5486 5486 5485 5485 5484 5483 5482
5477 5478 5478 5479 5479 5480 5480 5481 5482 5482 5482 5483 5483 5483 5482 5482 5482 5481 5480 5479 5478 5478 5477 5477 5477 5476 5476 5476 5476 5474 5472 5471 5470 5470 5469 5468 5467 5466
5463 5464 5464 5465 5465 5466 5466 5466 5467 5467 5467 5468 5468 5468 5468 5467 5466 5466 5465 5464 5463 5462 5462 5461 5461 5461 5460 5460 5460 5459 5458 5457 5456 5455 5454 5453 5453 5452
5449 5450 5451 5451 5451 5452 5452 5452 5452 5452 5452 5453 5453 5453 5453 5452 5452 5451 5450 5450 5449 5448 5447 5446 5446 5445 5445 5445 5444 5444 5443 5442 5442 5440 5440 5439 5438 5437
5436 5437 5437 5438 5438 5438 5438 5438 5438 5438 5438 5438 5438 5438 5438 5438 5437 5436 5435 5435 5434 5434 5433 5432 5431 5431 5431 5431 5430 5429 5429 5428 5427 5426 5426 5425 5424 5423
5423 5424 5424 5424 5424 5424 5424 5424 5423 5423 5423 5423 5424 5424 5423 5423 5423 5422 5421 5420 5420 5419 5419 5418 5417 5417 5417 5417 5416 5415 5415 5414 5413 5412 5411 5411 5412 5410
5411 5411 5411 5411 5411 5410 5410 5410 5410 5409 5409 5409 5410 5409 5409 5409 5408 5407 5407 5406 5405 5405 5405 5404 5403 5403 5403 5404 5403 5401 5400 5399 5399 5398 5398 5398 5398 5397
5398 5398 5398 5397 5397 5397 5396 5396 5396 5396 5396 5396 5396 5396 5395 5395 5394 5393 5393 5392 5392 5391 5391 5390 5390 5389 5389 5390 5390 5389 5386 5385 5385 5385 5385 5384 5384 5383
5385 5385 5384 5384 5383 5383 5383 5383 5383 5383 5382 5382 5382 5382 5381 5381 5380 5379 5379 5378 5378 5378 5378 5377 5377 5376 5376 5375 5375 5375 5373 5372 5371 5371 5371 5371 5371 5370
5372 5372 5372 5371 5370 5370 5370 5369 5369 5369 5368 5368 5368 5368 5367 5367 5366 5366 5365 5365 5365 5365 5364 5364 5363 5363 5363 5362 5362 5362 5361 5360 5359 5358 5357 5356 5356 5357
5359 5359 5358 5358 5357 5357 5356 5356 5355 5355 5355 5354 5354 5354 5353 5353 5353 5353 5352 5352 5352 5351 5351 5351 5351 5350 5350 5350 5350 5349 5348 5347 5347 5346 5346 5344 5343 5343
Wind_Speed
45 45 45 46 46 46 47 47 48 48 48 48 49 49 49 49 49 48 47 48 48 49 50 51 51 51 51 51 51 50 50 50 50 51 51 50 50 50
46 46 46 46 46 47 47 48 48 48 48 48 48 49 50 50 50 50 49 49 49 50 51 52 53 53 53 52 52 51 51 52 51 51 51 51 51 51
47 47 46 47 47 47 48 48 48 49 49 49 49 49 50 50 50 51 51 50 50 51 52 53 53 54 54 54 53 53 53 53 52 52 52 53 52 52
48 48 48 49 48 48 48 48 49 49 50 50 50 50 50 50 50 52 53 52 52 52 53 54 55 56 55 56 56 55 54 54 53 53 54 54 54 53
49 49 49 50 49 49 48 49 49 49 50 50 50 50 50 50 51 52 53 54 53 54 54 54 55 55 56 56 56 56 55 55 54 54 55 55 55 55
48 48 49 49 50 49 49 49 49 50 50 51 51 51 51 51 51 52 53 54 54 54 54 54 54 55 56 56 56 56 57 56 55 55 55 56 56 56
47 47 47 48 48 48 48 49 49 49 50 51 51 51 51 51 51 52 52 53 54 54 54 54 55 56 56 56 57 57 57 57 56 55 56 56 56 56
47 47 47 47 47 47 48 48 48 48 50 51 51 51 51 51 51 52 52 53 53 54 54 54 54 55 56 56 57 57 58 58 57 56 56 56 55 54
47 47 46 46 46 47 47 48 49 49 49 50 51 51 51 52 52 52 52 52 53 54 55 54 55 55 55 56 57 57 57 58 58 56 55 55 54 54
47 46 46 46 47 47 47 48 49 48 49 50 51 51 51 52 53 52 52 52 53 54 55 54 54 54 55 55 56 57 57 57 57 55 54 54 54 54
46 46 47 46 47 48 48 48 49 49 49 50 50 51 51 52 53 53 53 53 53 53 54 55 54 54 54 55 55 56 56 56 56 55 55 53 54 53
48 48 47 47 47 48 48 49 49 49 50 50 51 51 51 52 53 53 53 53 53 53 54 54 54 54 53 53 54 54 55 55 55 54 54 54 53 53
48 48 47 47 47 47 48 48 49 50 51 51 51 51 51 52 52 53 53 53 53 53 53 53 53 53 53 53 53 53 53 53 54 54 54 54 53 53
47 47 47 47 47 48 48 48 49 50 51 52 52 51 51 51 52 52 52 52 52 52 52 52 52 53 52 52 52 52 52 52 52 52 52 52 52 52
47 47 47 47 47 47 47 48 49 50 51 51 51 51 52 52 52 52 52 52 51 51 52 52 52 52 51 51 51 51 50 50 50 50 50 51 50 50
46 46 47 47 47 47 47 48 49 50 50 51 51 51 51 51 51 51 52 52 51 51 51 52 52 51 49 49 49 48 48 48 48 49 50 49 49 49
45 45 46 46 46 46 47 47 48 48 49 49 49 49 49 49 50 50 50 50 50 49 49 49 50 49 49 48 47 47 47 47 47 48 48 47 47 47
43 43 43 44 44 45 46 46 46 47 47 47 47 48 48 48 48 49 48 48 48 47 47 47 48 47 47 46 46 46 47 47 47 47 47 46 45 46
42 42 43 44 44 45 45 45 45 45 46 46 46 47 47 47 47 47 47 47 46 46 46 46 47 47 46 45 45 46 46 46 46 45 44 44 44 45
41 42 43 44 44 45 44 44 45 45 45 46 46 46 46 46 46 46 45 46 46 45 45 45 45 45 45 45 44 44 46 46 45 44 43 43 44 45
41 41 41 42 43 43 43 43 44 44 45 46 46 46 46 46 45 44 44 44 44 44 44 44 45 45 44 44 43 42 43 44 43 43 43 43 43 43
40 40 41 41 41 41 42 43 43 44 45 45 45 45 45 45 44 43 43 43 43 43 43 43 43 43 42 42 41 41 41 42 42 42 42 42 41 41
40 40 40 40 40 41 41 42 43 43 44 44 44 44 44 43 43 42 42 42 42 42 42 42 42 41 39 39 38 38 38 39 39 39 39 39 39 38
Wind_Direction
261 260 259 258 258 258 258 259 259 259 260 261 262 262 263 263 262 263 264 264 264 264 264 264 263 263 263 264 265 265 265 266 266 267 268 268 268 269
261 260 260 259 259 258 259 259 260 260 261 261 262 263 263 263 263 263 264 264 264 265 265 265 264 263 263 264 264 264 265 266 266 267 267 268 269 269
261 261 260 260 260 259 259 260 261 261 262 262 262 263 263 263 264 264 265 265 265 265 266 265 265 264 264 264 264 264 265 266 266 266 267 268 268 269
261 261 260 260 260 260 260 260 261 262 263 263 263 263 265 265 264 265 265 265 265 266 266 266 265 265 264 265 265 265 266 267 267 267 267 268 269 270
261 261 261 261 260 260 260 261 262 263 263 263 263 263 265 266 266 266 265 265 266 267 267 267 266 265 264 265 266 266 266 267 267 267 268 269 269 270
261 261 262 262 261 260 261 262 262 263 263 263 264 264 265 267 267 267 267 266 267 268 268 268 267 266 265 266 266 267 268 268 268 268 268 269 270 271
262 262 262 261 261 261 261 262 263 264 264 264 264 265 265 267 267 268 268 268 267 268 269 269 268 267 266 267 267 268 268 268 268 269 270 270 270 270
261 261 262 261 262 262 262 262 263 264 264 264 265 265 265 267 268 269 269 269 268 268 268 269 269 268 268 268 268 268 269 269 269 270 271 271 270 270
261 261 261 262 262 263 262 263 263 264 265 265 266 265 266 267 269 270 271 271 270 269 268 269 269 268 269 269 269 269 269 270 270 271 271 271 270 270
261 261 261 262 262 263 262 263 263 264 266 266 266 267 267 268 270 271 271 271 271 270 270 270 269 270 269 269 269 270 270 271 271 270 271 271 271 270
260 261 262 264 264 264 263 262 263 265 266 267 267 268 269 270 270 271 271 272 271 271 271 270 270 270 271 271 271 271 271 271 271 270 270 271 271 270
261 261 262 264 266 264 263 263 263 265 266 267 268 269 269 270 271 271 272 272 272 271 271 271 270 270 270 271 271 271 271 271 270 270 270 271 271 270
260 260 262 264 265 264 264 264 264 265 266 267 268 269 269 270 271 272 273 273 272 272 272 271 271 271 271 270 270 271 271 270 269 270 270 271 271 271
261 260 262 264 264 264 264 265 265 266 267 267 268 269 270 270 271 272 272 273 272 272 272 272 273 272 271 271 271 271 270 270 270 270 271 271 271 272
261 261 262 264 265 265 265 266 266 267 267 268 268 269 270 270 271 272 272 272 272 272 272 273 272 272 272 272 272 272 271 270 271 272 272 272 272 272
262 262 263 265 265 266 266 267 267 267 267 268 268 269 269 270 271 272 272 272 272 272 272 272 272 271 271 272 272 272 271 272 272 272 273 273 272 271
263 263 263 265 266 267 267 266 266 266 266 267 268 269 270 270 272 272 272 272 272 272 272 272 272 271 271 272 272 272 272 272 272 272 272 272 272 271
263 263 264 265 266 266 266 266 266 266 266 267 269 270 270 271 272 273 273 272 272 272 272 272 272 270 271 272 272 272 272 272 272 272 272 273 272 271
264 265 265 266 267 267 266 266 266 266 267 268 269 269 270 270 271 272 273 272 272 272 272 272 271 270 271 272 271 272 272 271 272 272 272 272 272 272
266 266 266 267 267 267 266 266 266 267 267 268 268 269 270 271 272 272 271 271 270 270 271 271 271 270 272 272 271 271 271 272 272 272 272 272 272 273
267 267 267 268 267 267 267 267 267 268 268 268 268 269 270 271 271 271 270 270 270 270 271 271 270 271 273 273 271 271 270 271 271 271 271 272 272 272
267 267 268 268 268 268 268 268 268 268 268 268 268 269 270 270 270 269 269 269 269 270 271 270 270 270 271 272 271 270 270 270 271 272 273 273 273 273
268 268 269 269 269 269 269 269 269 269 268 269 269 269 269 269 269 268 268 269 270 270 270 269 268 269 270 271 270 270 270 270 271 271 272 273 274 274